Notices

What's New in latest Release from April 7th, 2021:

- Updated Glossary, including Speed of Maximum Gust, and Total Hourly Precipitation

- Updated national and regional climate services offices contacts and prices information

- Addition of station inventory lists for 1981-2010, 1971-2000, and 1961-1990 Normals.

If you haven't already, please take our survey and provide feedback about our website: https://eccc.sondage-survey.ca/f/LanguageSelection.aspx?s=442ca660-fcf1-47c0-95a9-59707d6fd709

Hourly Data Report for March 01, 2021

MIRAMICHI RCS
NEW BRUNSWICK
Current Station Operator: ECCC - MSC

47°00'34.000" N
65°27'54.000" W
33.00 m
8100989
71744
ACQ

Download Data

Hourly Data (March 2021)
Hourly Data Report for March 1, 2021
TIME
LST
Temp Definition
°C
Dew Point Definition
°C
Rel Hum Definition
%
Precip. Amount Definition
mm

Wind Dir Definition
10's deg

Wind Spd Definition
km/h
Visibility Definition
km
Stn Press Definition
kPa
Hmdx Definition


Wind Chill Definition


Weather Definition


00:00 -9.7 -10.9 91 LegendMM 0 1   101.80   -10 LegendNANA
01:00 -10.6 -11.1 96 LegendMM 9 4   101.68   -13 LegendNANA
02:00 -8.6 -9.0 97 LegendMM 17 3   101.64   -10 LegendNANA
03:00 -7.2 -8.1 94 LegendMM 14 4   101.48   -9 LegendNANA
04:00 -3.7 -5.2 89 LegendMM 14 13   101.35   -9 LegendNANA
05:00 -3.4 -5.9 83 LegendMM 13 8   101.26   -7 LegendNANA
06:00 -3.0 -6.1 79 LegendMM 13 9   101.10   -7 LegendNANA
07:00 -2.8 -5.9 79 LegendMM 13 7   101.00   -6 LegendNANA
08:00 -2.3 -5.6 78 LegendMM 13 15   100.76   -7 LegendNANA
09:00 -1.5 -5.3 75 LegendMM 13 18   100.62   -7 LegendNANA
10:00 -0.9 -4.9 75 LegendMM 15 18   100.45   -6 LegendNANA
11:00 -0.6 -4.6 74 LegendMM 15 18   100.28   -6 LegendNANA
12:00 -1.2 -2.9 88 LegendMM 12 14   100.03   -6 LegendNANA
13:00 -1.5 -2.1 95 LegendMM 9 17   99.80   -7 LegendNANA
14:00 -1.5 -2.1 95 LegendMM 8 19   99.54   -7 LegendNANA
15:00 -1.4 -2.0 96 LegendMM 8 16   99.33   -6 LegendNANA
16:00 -1.6 -2.3 95 LegendMM 8 17   99.07   -7 LegendNANA
17:00 -1.5 -2.0 96 LegendMM 3 11   99.02   -5 LegendNANA
18:00 -1.4 -1.8 97 LegendMM 7 19   98.72   -7 LegendNANA
19:00 -1.2 -1.7 97 LegendMM 9 22   98.47   -7 LegendNANA
20:00 -1.1 -1.5 97 LegendMM 10 18   98.28   -6 LegendNANA
21:00 -1.0 -1.4 97 LegendMM 5 4   98.09   -2 LegendNANA
22:00 -1.1 -1.4 98 LegendMM 29 6   97.90   -3 LegendNANA
23:00 -1.3 -1.6 97 LegendMM 29 7   97.73   -4 LegendNANA

Notes on Data Quality.

Legend

  • E = Estimated
  • M = Missing
  • NA = Not Available*
  • [empty] = Indicates an unobserved value
Date modified: